Location: Olsztyn
(53.7767°N, 20.4765°E)
Time: 16:31:37
(UTC+02:00)

A-11 Canister half - All Passes

Search period start: 14 July 2024 00:00
Search period end: 24 July 2024 00:00
Orbit: 1515 x 1685 km, 47.2° (Epoch: 14 July)

Date Brightness Start Highest point End Pass type
(mag) Time Alt. Az. Time Alt. Az. Time Alt. Az.
14 Jul - 10:43:42 10° SSE 10:49:54 19° SE 10:56:09 10° E daylight
14 Jul - 12:43:35 10° SW 12:52:49 43° SSE 13:02:09 10° E daylight
14 Jul - 14:46:57 10° WSW 14:56:51 61° S 15:06:45 10° E daylight
14 Jul - 16:51:23 10° W 17:01:05 52° SSW 17:10:41 10° SE daylight
14 Jul - 18:56:31 10° W 19:04:29 27° SW 19:12:21 10° S daylight
15 Jul - 10:21:13 10° SSE 10:27:02 17° SE 10:32:55 10° E daylight
15 Jul - 12:20:45 10° SW 12:29:52 42° SSE 12:39:08 10° E daylight
15 Jul - 14:23:59 10° WSW 14:33:51 60° S 14:43:46 10° E daylight
15 Jul - 16:28:23 10° W 16:38:07 53° SSW 16:47:46 10° SE daylight
15 Jul - 18:33:26 10° W 18:41:36 29° SW 18:49:39 10° SSE daylight
16 Jul - 09:58:47 10° SSE 10:04:11 16° SE 10:09:38 10° E daylight
16 Jul - 11:57:54 10° SSW 12:06:56 40° SSE 12:16:06 10° E daylight
16 Jul - 14:01:02 10° WSW 14:10:52 60° S 14:20:47 10° E daylight
16 Jul - 16:05:23 10° W 16:15:08 54° SSW 16:24:50 10° SE daylight
16 Jul - 18:10:22 10° W 18:18:41 30° SW 18:26:55 10° SSE daylight
17 Jul - 09:36:26 10° SSE 09:41:20 15° SE 09:46:17 10° E daylight
17 Jul - 11:35:04 10° SSW 11:44:00 39° SSE 11:53:04 10° E daylight
17 Jul - 13:38:04 10° WSW 13:47:53 59° S 13:57:47 10° E daylight
17 Jul - 15:42:23 10° W 15:52:10 55° SSW 16:01:54 10° ESE daylight
17 Jul - 17:47:18 10° W 17:55:46 32° SW 18:04:10 10° SSE daylight
18 Jul - 09:14:09 10° SSE 09:18:29 14° SE 09:22:53 10° E daylight
18 Jul - 11:12:16 10° SSW 11:21:04 37° SSE 11:30:03 10° E daylight
18 Jul - 13:15:08 10° WSW 13:24:55 59° S 13:34:47 10° E daylight
18 Jul - 15:19:24 10° W 15:29:11 56° SSW 15:38:58 10° ESE daylight
18 Jul - 17:24:15 10° W 17:32:52 33° SW 17:41:23 10° SSE daylight
18 Jul - 19:33:52 10° WSW 19:35:12 10° WSW 19:36:33 10° SW daylight
19 Jul - 08:52:00 10° SE 08:55:39 13° ESE 08:59:21 10° ESE daylight
19 Jul - 10:49:28 10° SSW 10:58:09 36° SE 11:06:59 10° E daylight
19 Jul - 12:52:11 10° WSW 13:01:55 58° SSE 13:11:48 10° E daylight
19 Jul - 14:56:25 10° W 15:06:13 57° SSW 15:16:02 10° ESE daylight
19 Jul - 17:01:12 10° W 17:09:57 34° SW 17:18:37 10° SSE daylight
19 Jul - 19:09:34 10° WSW 19:12:22 11° WSW 19:15:11 10° SW daylight
20 Jul - 08:30:03 10° SE 08:32:50 11° ESE 08:35:36 10° ESE daylight
20 Jul - 10:26:40 10° SSW 10:35:14 35° SE 10:43:57 10° E daylight
20 Jul - 12:29:15 10° WSW 12:38:56 57° SSE 12:48:47 10° E daylight
20 Jul - 14:33:25 10° W 14:43:14 58° SSW 14:53:05 10° ESE daylight
20 Jul - 16:38:09 10° W 16:47:01 36° SW 16:55:49 10° SSE daylight
20 Jul - 18:45:49 10° WSW 18:49:32 13° WSW 18:53:14 10° SW daylight
21 Jul - 08:08:44 10° SE 08:10:00 10° ESE 08:11:17 10° ESE daylight
21 Jul - 10:03:55 10° SSW 10:12:19 33° SE 10:20:53 10° E daylight
21 Jul - 12:06:19 10° WSW 12:15:58 56° SSE 12:25:48 10° E daylight
21 Jul - 14:10:26 10° W 14:20:15 58° S 14:30:07 10° ESE daylight
21 Jul - 16:15:08 10° W 16:24:05 37° SW 16:33:00 10° SSE daylight
21 Jul - 18:22:18 10° W 18:26:42 14° SW 18:31:04 10° SSW daylight
22 Jul - 09:41:10 10° SSW 09:49:24 32° SE 09:57:50 10° E daylight
22 Jul - 11:43:24 10° WSW 11:52:59 55° SSE 12:02:48 10° E daylight
22 Jul - 13:47:27 10° W 13:57:15 59° S 14:07:09 10° ESE daylight
22 Jul - 15:52:07 10° W 16:01:09 39° SSW 16:10:11 10° SSE daylight
22 Jul - 17:58:53 10° W 18:03:51 15° SW 18:08:47 10° SSW daylight
23 Jul - 09:18:25 10° SSW 09:26:30 30° SE 09:34:46 10° E daylight
23 Jul - 11:20:28 10° WSW 11:30:01 54° SSE 11:39:47 10° E daylight
23 Jul - 13:24:29 10° W 13:34:16 60° S 13:44:11 10° ESE daylight
23 Jul - 15:29:05 10° W 15:38:13 40° SSW 15:47:21 10° SSE daylight
23 Jul - 17:35:34 10° W 17:40:59 16° SW 17:46:24 10° SSW daylight
